Weather History for Millville, NJ

Change the Weather History Date:

Monday, March 25, 2013

  Actual Average Record
Temperature  
Mean Temperature 34 °F -  
Max Temperature 36 °F 52 °F 77 °F (1963)
Min Temperature 33 °F 32 °F 17 °F (2014)
Degree Days  
Heating Degree Days 30    
Moisture  
Dew Point 32 °F    
Average Humidity 90    
Maximum Humidity 96    
Minimum Humidity 73    
Precipitation  
Precipitation 0.72 in - - ()
Sea Level Pressure  
Sea Level Pressure 29.51 in    
Wind  
Wind Speed 9 mph (North)    
Max Wind Speed 18 mph    
Max Gust Speed 26 mph    
Visibility 3 miles    
Events Fog , Rain , Snow    
Averages and records for this station are not official NWS values.
T = Trace of Precipitation, MM = Missing Value Source: NWS Daily Summary

Daily Weather History Graph

Daily Weather History Graph

Search for Another Location

Airport:

Trip Planner

Search our weather history database for the weather conditions in past years. The results will help you decide how hot, cold, wet, or windy it might be!

Date:

Astronomy

Mar. 25, 2013 Rise Set
Actual Time 6:55 AM EDT 7:17 PM EDT
Civil Twilight 6:28 AM EDT 7:44 PM EDT
Nautical Twilight 5:57 AM EDT 8:15 PM EDT
Astronomical Twilight 5:24 AM EDT 8:48 PM EDT
Moon 5:46 PM EDT 5:37 AM EDT
Length of Visible Light 13h 15m
Length of Day
12h 22m
Waxing Gibbous, 96% of the Moon is Illuminated
Mar 25
Waxing Gibbous
Mar 27
Full
Apr 3
Last Quarter
Apr 10
New
Apr 18
First Quarter

Hourly Weather History & Observations

Time (EDT) Temp. Windchill Dew Point Humidity Pressure Visibility Wind Dir Wind Speed Gust Speed Precip Events Conditions
12:54 AM 36.0 °F 32.1 °F 28.0 °F 73% 29.66 in 10.0 mi East 4.6 mph - 0.00 in   Overcast
1:54 AM 35.1 °F 28.6 °F 30.0 °F 82% 29.64 in 10.0 mi East 8.1 mph - N/A   Overcast
2:54 AM 35.1 °F 29.3 °F 30.9 °F 85% 29.60 in 10.0 mi East 6.9 mph - N/A   Overcast
3:54 AM 35.1 °F 29.3 °F 32.0 °F 89% 29.56 in 10.0 mi ENE 6.9 mph - N/A   Overcast
4:54 AM 36.0 °F 31.1 °F 32.0 °F 86% 29.53 in 10.0 mi NE 5.8 mph - 0.00 in Rain Light Rain
5:24 AM 35.6 °F 31.7 °F 30.2 °F 81% 29.53 in 10.0 mi NE 4.6 mph - 0.00 in Rain Light Rain
5:54 AM 35.1 °F 31.0 °F 32.0 °F 89% 29.53 in 4.0 mi NNE 4.6 mph - 0.00 in Rain Light Rain
6:18 AM 33.8 °F 28.6 °F 32.0 °F 93% 29.54 in 4.0 mi NNW 5.8 mph - 0.03 in Snow Light Snow
6:28 AM 33.8 °F 28.6 °F 32.0 °F 93% 29.53 in 1.8 mi NNW 5.8 mph - 0.04 in Snow Light Snow
6:35 AM 33.8 °F 28.6 °F 30.2 °F 87% 29.54 in 1.2 mi NNW 5.8 mph - 0.04 in Snow Light Snow
6:47 AM 33.8 °F 28.6 °F 30.2 °F 87% 29.54 in 0.8 mi NNW 5.8 mph - 0.05 in Snow Light Snow
6:54 AM 33.1 °F 26.9 °F 30.9 °F 92% 29.54 in 0.8 mi North 6.9 mph - 0.05 in Snow Light Snow
7:22 AM 33.8 °F 27.0 °F 30.2 °F 87% 29.54 in 1.0 mi North 8.1 mph - 0.01 in Snow Light Snow
7:29 AM 33.8 °F 27.7 °F 30.2 °F 87% 29.54 in 0.8 mi North 6.9 mph - 0.01 in Snow Light Snow
7:40 AM 33.8 °F 27.0 °F 30.2 °F 87% 29.54 in 0.2 mi North 8.1 mph - 0.01 in Fog , Snow Heavy Snow
7:51 AM 33.8 °F 27.0 °F 30.2 °F 87% 29.53 in 0.5 mi North 8.1 mph - 0.02 in Fog , Snow Snow
7:52 AM 33.1 °F 26.1 °F 30.9 °F 92% 29.53 in 0.5 mi North 8.1 mph - 0.02 in Fog , Snow Snow
8:13 AM 33.8 °F 26.4 °F 30.2 °F 87% 29.53 in 0.5 mi NNE 9.2 mph - 0.01 in Fog , Snow Snow
8:36 AM 33.8 °F 26.4 °F 30.2 °F 87% 29.52 in 0.8 mi NNE 9.2 mph - 0.03 in Snow Light Snow
8:45 AM 33.8 °F 26.4 °F 30.2 °F 87% 29.52 in 1.0 mi NNE 9.2 mph - 0.03 in Snow Light Snow
8:52 AM 33.8 °F 26.4 °F 32.0 °F 93% 29.52 in 0.5 mi NNE 9.2 mph - 0.04 in Fog , Snow Snow
8:54 AM 33.1 °F 25.5 °F 32.0 °F 96% 29.52 in 0.5 mi NNE 9.2 mph - 0.04 in Fog , Snow Snow
9:05 AM 33.8 °F 27.0 °F 30.2 °F 87% 29.51 in 0.2 mi NNE 8.1 mph - 0.00 in Fog , Snow Heavy Snow
9:14 AM 33.8 °F 25.8 °F 32.0 °F 93% 29.51 in 0.5 mi NNE 10.4 mph - 0.01 in Fog , Snow Snow
9:33 AM 33.8 °F 25.8 °F 32.0 °F 93% 29.50 in 1.5 mi NNE 10.4 mph - 0.03 in Snow Light Snow
9:52 AM 33.8 °F 25.3 °F 30.2 °F 87% 29.50 in 0.8 mi NNE 11.5 mph - 0.05 in Snow Light Snow
9:54 AM 33.1 °F 23.9 °F 30.9 °F 92% 29.50 in 0.8 mi NNE 12.7 mph - 0.05 in Snow Light Snow
10:54 AM 33.1 °F 23.0 °F 32.0 °F 96% 29.47 in 0.5 mi NNE 15.0 mph - 0.07 in Fog , Snow Snow
11:25 AM 33.8 °F 24.3 °F 32.0 °F 93% 29.46 in 1.5 mi NNE 13.8 mph - 0.06 in Snow Light Snow
11:34 AM 33.8 °F 24.3 °F 32.0 °F 93% 29.46 in 2.5 mi NNE 13.8 mph 23.0 mph 0.07 in Snow Light Snow
11:42 AM 33.8 °F 24.3 °F 32.0 °F 93% 29.45 in 4.0 mi NNE 13.8 mph - 0.08 in Snow Light Snow
11:54 AM 34.0 °F 23.4 °F 32.0 °F 92% 29.45 in 9.0 mi NNE 17.3 mph 21.9 mph 0.10 in   Overcast
12:29 PM 35.6 °F 25.9 °F 32.0 °F 87% 29.44 in 2.5 mi NNE 16.1 mph 26.5 mph 0.06 in Snow Light Snow
12:47 PM 35.6 °F 27.1 °F 32.0 °F 87% 29.44 in 1.8 mi NNE 12.7 mph 20.7 mph 0.08 in Snow Light Snow
12:54 PM 34.0 °F 23.0 °F 32.0 °F 92% 29.43 in 1.2 mi NNE 18.4 mph 23.0 mph 0.10 in Snow Light Snow
1:25 PM 33.8 °F 23.5 °F 32.0 °F 93% 29.44 in 0.8 mi NNE 16.1 mph 23.0 mph 0.04 in Snow Light Snow
1:54 PM 34.0 °F 24.2 °F 32.0 °F 92% 29.44 in 0.8 mi NNE 15.0 mph 19.6 mph 0.08 in Snow Light Snow
2:24 PM 33.8 °F 25.3 °F 32.0 °F 93% 29.44 in 1.2 mi North 11.5 mph - 0.03 in Snow Light Snow
2:54 PM 34.0 °F 24.6 °F 32.0 °F 92% 29.44 in 1.2 mi NNE 13.8 mph 23.0 mph 0.06 in Snow Light Snow
3:54 PM 34.0 °F 25.5 °F 32.0 °F 92% 29.45 in 1.5 mi North 11.5 mph - 0.03 in Snow Light Snow
4:10 PM 33.8 °F 24.8 °F 32.0 °F 93% 29.45 in 2.5 mi NNE 12.7 mph - 0.01 in Snow Light Snow
4:29 PM 33.8 °F 25.3 °F 32.0 °F 93% 29.46 in 2.0 mi North 11.5 mph - 0.01 in Snow Light Snow
4:43 PM 33.8 °F 25.8 °F 32.0 °F 93% 29.46 in 1.0 mi North 10.4 mph - 0.02 in Snow Light Snow
4:54 PM 34.0 °F 25.5 °F 32.0 °F 92% 29.47 in 1.2 mi North 11.5 mph - 0.03 in Snow Light Snow
5:04 PM 33.8 °F 25.3 °F 32.0 °F 93% 29.47 in 2.0 mi NNW 11.5 mph - 0.00 in Snow Light Snow
5:14 PM 33.8 °F 25.8 °F 32.0 °F 93% 29.47 in 1.5 mi NNW 10.4 mph - 0.01 in Snow Light Snow
5:28 PM 33.8 °F 27.0 °F 32.0 °F 93% 29.48 in 2.0 mi NNW 8.1 mph - 0.01 in Snow Light Snow
5:54 PM 34.0 °F 26.6 °F 32.0 °F 92% 29.49 in 4.0 mi NW 9.2 mph - 0.03 in Snow Light Snow
6:09 PM 33.8 °F 25.8 °F 32.0 °F 93% 29.50 in 5.0 mi NW 10.4 mph - 0.00 in Snow Light Snow
6:18 PM 33.8 °F 27.0 °F 32.0 °F 93% 29.50 in 4.0 mi NNW 8.1 mph - 0.00 in Snow Light Snow
6:54 PM 35.1 °F 29.3 °F 33.1 °F 92% 29.53 in 7.0 mi NW 6.9 mph - 0.01 in Rain Light Rain
7:15 PM 35.6 °F 29.9 °F 33.8 °F 93% 29.55 in 5.0 mi NW 6.9 mph - 0.00 in Rain Light Rain
7:29 PM 35.6 °F 29.2 °F 33.8 °F 93% 29.55 in 7.0 mi WNW 8.1 mph - 0.01 in Rain Light Rain
7:49 PM 35.6 °F 28.6 °F 33.8 °F 93% 29.56 in 7.0 mi NW 9.2 mph - 0.01 in Rain Light Rain
7:51 PM 35.6 °F 28.6 °F 33.8 °F 93% 29.56 in 7.0 mi WNW 9.2 mph - 0.01 in Rain Light Rain
7:54 PM 35.1 °F 27.9 °F 33.1 °F 92% 29.56 in 7.0 mi WNW 9.2 mph - 0.01 in Rain Light Rain
8:54 PM 35.1 °F 26.9 °F 33.1 °F 92% 29.60 in 8.0 mi WNW 11.5 mph - 0.02 in Rain Light Rain
9:54 PM 35.1 °F 26.9 °F 33.1 °F 92% 29.61 in 6.0 mi WNW 11.5 mph - 0.01 in Rain Light Rain
10:54 PM 35.1 °F 27.9 °F 33.1 °F 92% 29.63 in 5.0 mi WNW 9.2 mph - 0.00 in Rain Light Rain
11:54 PM 35.1 °F 27.9 °F 33.1 °F 92% 29.64 in 4.0 mi WNW 9.2 mph - 0.01 in Rain Light Rain